Location: Cazavet
(43.0017°N, 1.0431°E)
Time: 09:37:28
(UTC+00:00)

SL-8 Rocket - Pass Details

Date: 18 January 2026
Orbit: 955 x 990 km, 82.9° (Epoch: 9 February)

Event Time Altitude Azimuth Distance (km) Brightness Sun altitude
Rises 06:39:45 0° 198° (SSW) 3,686 7.1 -8.0°
Reaches altitude 10° 06:42:19 10° 203° (SSW) 2,740 6.4 -7.6°
Maximum altitude 06:48:30 57° 281° (W) 1,148 4.1 -6.5°
Drops below altitude 10° 06:54:41 10° 0° (N) 2,739 6.1 -5.5°
Sets 06:57:15 0° 5° (N) 3,686 6.8 -5.0°
